Location: Sternwarte auf dem Internationalen Platz Vogelsang IP
(50.5721°N, 6.4398°E)
Time: 10:21:01
(UTC+01:00)

A-11 Canister half - Pass Details

Date: 13 December 2025
Orbit: 1511 x 1688 km, 47.2° (Epoch: 15 January)

Event Time Altitude Azimuth Distance (km) Brightness Sun altitude
Rises 23:33:01 0° 285° (WNW) 4,818 11.9 -60.6°
Enters shadow 23:35:31 - 276° (W) 4,278 11.5 -60.7°
Reaches altitude 10° 23:37:55 10° 265° (W) 3,864 - -60.9°
Maximum altitude 23:42:47 15° 234° (SW) 3,505 - -61.2°
Drops below altitude 10° 23:47:43 10° 204° (SSW) 3,914 - -61.5°
Sets 23:52:48 0° 183° (S) 4,918 - -61.8°
